Powrót do katalogu

SL-16 DEB

AktywnyLEO
NORAD 39303·DEBRIS·🇷🇺 Russia

Wystrzelony Dec 25, 1992 z Baikonur Cosmodrome

Loading…

Następne Przeloty (najbliższe 24 godziny)

TLE

Starzejące sięSource: Space-Track

Epoka: Sep 8, 2026, 05:06 UTC

1 39303U 92093JU  26251.21310607  .00000133  00000-0  91887-4 0  9991
2 39303  70.9056  92.2311 0056247  23.2746 337.0904 14.15279198664080

Śledź SL-16 DEB w czasie rzeczywistym z AllMySat

Download on the App Store